Location: Newark
(29.9790°N, 31.1340°E)
Time: 00:59:00
(UTC+00:00)

Tiros 1 - Pass Details

Date: 21 January 2020
Orbit: 631 x 664 km, 48.4° (Epoch: 20 February)

Event Time Altitude Azimuth Distance (km) Brightness Sun altitude
Rises 17:49:40 0° 319° (NW) 2,986 11.0 -31.6°
Reaches altitude 10° 17:52:12 10° 328° (NNW) 2,075 10.0 -32.1°
Enters shadow 17:52:34 12° 331° (NNW) 1,948 9.8 -32.2°
